Iron Mountain, MI

9:48 PM CST on December 12, 2017 (GMT -0600)
Ford

Weather History for KIMT - November, 2011

Change the Weather History Date:

Wednesday, November 23, 2011

  Actual Average Record
Temperature  
Mean Temperature 30 °F -  
Max Temperature 39 °F 36 °F 56 °F (1963)
Min Temperature 21 °F 21 °F 0 °F (1950)
Degree Days  
Heating Degree Days 35    
Moisture  
Dew Point 28 °F    
Average Humidity 91    
Maximum Humidity 100    
Minimum Humidity 76    
Precipitation  
Precipitation 0.00 in - - ()
Sea Level Pressure  
Sea Level Pressure 30.06 in    
Wind  
Wind Speed 2 mph (WSW)    
Max Wind Speed 8 mph    
Max Gust Speed -    
Visibility 4 miles    
Events      
Averages and records for this station are not official NWS values.
T = Trace of Precipitation, MM = Missing Value Source: NWS Daily Summary

Daily Weather History Graph

Daily Weather History Graph

Search for Another Location

Airport or City:

Trip Planner

Search our weather history database for the weather conditions in past years. The results will help you decide how hot, cold, wet, or windy it might be!

Date:

Astronomy

Nov. 23, 2011 Rise Set
Actual Time 7:02 AM CST 4:14 PM CST
Civil Twilight 6:29 AM CST 4:47 PM CST
Nautical Twilight 5:53 AM CST 5:24 PM CST
Astronomical Twilight 5:17 AM CST 5:59 PM CST
Moon 5:04 AM CST (11/23) 2:56 PM CST (11/23)
Length of Visible Light 10h 17m
Length of Day
9h 11m
Waning Crescent, 3% of the Moon is Illuminated
Nov 23
Waning Crescent
Nov 25
New
Dec 2
First Quarter
Dec 10
Full
Dec 17
Last Quarter

Hourly Weather History & Observations

Time (CST) Temp. Windchill Dew Point Humidity Pressure Visibility Wind Dir Wind Speed Gust Speed Precip Events Conditions
12:12 AM 21.2 °F - 19.4 °F 93% 30.02 in 1.5 mi Calm Calm - N/A   Clear
12:14 AM 21.2 °F - 19.4 °F 93% 30.02 in 3.0 mi Calm Calm - N/A   Clear
12:54 AM 21.9 °F - 19.9 °F 92% 30.07 in 4.0 mi Calm Calm - N/A   Clear
1:09 AM 21.2 °F - 19.4 °F 93% 30.02 in 2.0 mi Calm Calm - N/A   Clear
1:25 AM 24.8 °F - 21.2 °F 86% 30.02 in 3.0 mi Calm Calm - N/A   Clear
1:54 AM 21.0 °F 16.2 °F 19.0 °F 92% 30.09 in 7.0 mi NNW 3.5 mph - N/A   Clear
2:54 AM 23.0 °F 15.8 °F 21.0 °F 92% 30.08 in 8.0 mi WNW 5.8 mph - N/A   Partly Cloudy
3:02 AM 23.0 °F 14.7 °F 21.2 °F 93% 30.02 in 7.0 mi WNW 6.9 mph - N/A   Mostly Cloudy
3:54 AM 24.1 °F - 23.0 °F 96% 30.09 in 6.0 mi Calm Calm - N/A   Overcast
4:05 AM 24.8 °F - 23.0 °F 93% 30.04 in 6.0 mi Calm Calm - N/A   Overcast
4:46 AM 24.8 °F - 24.8 °F 100% 30.04 in 8.0 mi Calm Calm - N/A   Overcast
5:34 AM 26.6 °F - 24.8 °F 93% 30.04 in 8.0 mi Calm Calm - N/A   Overcast
6:54 AM 28.9 °F - 28.0 °F 96% 30.09 in 6.0 mi Calm Calm - N/A   Overcast
7:54 AM 30.0 °F - 30.0 °F 100% 30.10 in 3.0 mi Calm Calm - N/A   Overcast
8:09 AM 30.2 °F 26.7 °F 30.2 °F 100% 30.05 in 2.5 mi SW 3.5 mph - N/A   Overcast
8:17 AM 30.2 °F 25.4 °F 30.2 °F 100% 30.05 in 3.0 mi WSW 4.6 mph - N/A   Overcast
8:45 AM 30.2 °F 25.4 °F 30.2 °F 100% 30.06 in 2.5 mi West 4.6 mph - N/A   Overcast
8:54 AM 30.9 °F 26.2 °F 30.0 °F 96% 30.11 in 3.0 mi WSW 4.6 mph - N/A   Overcast
9:54 AM 32.0 °F 26.4 °F 30.9 °F 96% 30.12 in 3.0 mi SW 5.8 mph - N/A   Overcast
10:54 AM 33.1 °F 27.7 °F 30.9 °F 92% 30.10 in 4.0 mi West 5.8 mph - N/A   Overcast
11:54 AM 35.1 °F 30.1 °F 30.9 °F 85% 30.08 in 5.0 mi WSW 5.8 mph - N/A   Overcast
12:29 PM 37.4 °F 32.8 °F 32.0 °F 81% 30.03 in 6.0 mi WSW 5.8 mph - N/A   Haze
12:39 PM 37.4 °F 34.9 °F 33.8 °F 87% 30.03 in 6.0 mi WSW 3.5 mph - N/A   Haze
12:54 PM 37.9 °F 34.4 °F 33.1 °F 83% 30.08 in 6.0 mi Variable 4.6 mph - N/A   Haze
1:17 PM 37.4 °F 31.4 °F 32.0 °F 81% 30.02 in 5.0 mi WSW 8.1 mph - N/A   Haze
2:54 PM 39.0 °F 34.0 °F 32.0 °F 76% 30.08 in 6.0 mi WSW 6.9 mph - N/A   Haze
3:54 PM 37.0 °F 33.3 °F 32.0 °F 82% 30.07 in 5.0 mi SW 4.6 mph - N/A   Haze
4:54 PM 34.0 °F 29.8 °F 30.9 °F 89% 30.08 in 5.0 mi SW 4.6 mph - N/A   Clear
5:54 PM 32.0 °F 27.5 °F 30.0 °F 92% 30.07 in 4.0 mi SSW 4.6 mph - N/A   Clear
6:54 PM 32.0 °F - 30.0 °F 92% 30.06 in 4.0 mi Calm Calm - N/A   Clear
7:54 PM 32.0 °F 28.7 °F 30.0 °F 92% 30.06 in 3.0 mi West 3.5 mph - N/A   Clear
9:54 PM 33.1 °F - 30.9 °F 92% 30.04 in 4.0 mi Calm Calm - N/A   Partly Cloudy
10:39 PM 33.8 °F 29.6 °F 30.2 °F 87% 29.99 in 3.0 mi Variable 4.6 mph - N/A   Mostly Cloudy
10:54 PM 34.0 °F - 30.9 °F 89% 30.04 in 3.0 mi Calm Calm - N/A   Overcast
11:54 PM 35.1 °F 32.2 °F 33.1 °F 92% 30.02 in 3.0 mi West 3.5 mph - N/A   Overcast